Wind_Speed
4 3 4 5 5 5 6 6 7 7 7 7 7 6 7 8 8 8 8 8 8 8 7 7 8 8 9 9 9 10 10 10 10 9 9 9 8 8 8 7 7 6 6
5 5 5 6 6 6 7 6 7 7 7 7 7 7 7 8 8 9 8 8 7 8 8 8 8 8 9 9 10 10 11 11 11 11 10 10 10 9 8 8 8 8 7
6 6 6 6 6 6 7 6 6 6 6 7 7 7 7 7 8 9 9 9 7 8 9 9 9 9 9 9 10 11 11 11 12 11 11 11 11 10 9 9 9 9 8
6 6 6 6 7 6 6 6 6 6 6 6 7 7 7 7 8 9 9 9 8 8 8 8 9 10 10 10 10 11 11 11 12 12 11 11 11 11 11 11 10 10 9
7 6 6 6 6 6 6 5 5 5 6 7 7 7 8 8 8 9 8 8 8 7 8 8 9 10 11 11 11 10 11 12 12 12 12 12 12 12 12 11 11 11 11
6 6 6 6 6 6 6 6 6 6 5 6 6 7 7 8 8 8 8 8 8 8 8 9 9 10 10 11 11 11 11 11 11 12 12 12 12 13 13 12 11 11 12
5 5 6 6 6 6 6 6 6 6 6 6 6 6 7 8 8 8 8 8 8 9 9 8 8 8 9 10 11 12 12 12 12 12 12 12 12 13 13 12 13 13 13
5 5 6 6 7 6 6 6 6 6 6 6 7 7 7 7 8 8 8 8 8 9 9 9 8 9 9 10 11 12 12 12 12 13 13 12 13 13 13 13 13 13 14
6 6 7 6 6 6 5 6 6 6 6 6 6 6 6 7 8 8 8 8 8 8 8 9 9 9 9 10 11 11 11 12 11 11 11 12 12 12 12 13 13 13 13
6 6 6 6 6 6 5 5 5 5 5 5 6 6 6 7 7 8 8 8 8 8 7 8 8 8 9 9 10 10 10 11 10 11 11 12 12 13 13 13 13 14 14
6 6 6 6 6 6 5 5 5 4 4 4 5 5 5 6 7 7 7 7 7 8 8 7 7 7 8 9 9 9 10 10 9 9 10 11 12 13 14 14 14 14 14
6 7 7 6 6 5 5 5 4 4 4 3 3 3 4 4 5 6 6 6 6 7 7 7 7 7 7 7 8 8 9 9 10 10 10 10 11 12 13 13 13 13 13
6 6 7 6 5 5 4 4 4 4 3 3 3 3 3 4 4 5 6 6 7 6 6 7 8 7 7 7 8 8 8 9 10 10 10 10 11 11 12 13 13 13 13
6 6 6 6 5 5 4 3 4 4 3 3 3 3 3 4 4 4 5 5 5 6 6 6 6 6 6 7 8 8 8 8 9 9 9 10 10 11 11 11 12 13 13
6 6 6 6 5 4 4 4 4 3 3 2 3 3 3 3 3 4 3 4 4 4 5 6 6 6 6 7 7 7 7 7 8 8 8 9 9 10 10 10 11 12 12
7 7 6 6 5 5 5 5 4 4 3 3 3 3 3 3 4 4 3 3 4 4 5 5 5 5 5 5 6 6 7 6 7 7 7 8 9 10 10 10 10 11 12
6 7 7 6 6 6 5 5 4 4 4 3 3 3 3 3 3 3 3 3 3 3 4 4 4 4 4 4 4 5 5 6 6 7 8 8 8 8 9 9 10 10 10
7 7 7 7 7 6 6 5 5 5 4 4 4 4 4 4 4 3 3 3 4 4 4 4 4 4 4 4 3 4 4 5 6 7 7 8 8 8 8 8 9 10 10
7 7 7 8 7 6 6 6 6 5 4 4 4 4 4 4 4 4 4 4 4 4 4 4 4 4 4 4 4 4 4 5 5 6 7 8 8 8 8 8 8 9 10
6 6 7 7 7 7 7 6 6 5 5 4 4 4 4 4 4 4 5 5 4 4 4 4 4 4 4 4 4 4 4 5 5 6 6 7 7 8 8 8 8 9 9
6 6 7 7 7 6 6 6 6 5 5 5 5 4 4 4 4 5 5 5 5 4 4 4 5 4 4 4 4 4 4 4 4 5 6 7 7 7 8 8 8 9 9
6 7 7 8 7 7 6 6 5 5 5 5 4 4 4 4 4 4 5 5 5 4 4 4 4 5 4 4 4 4 4 4 4 5 6 6 7 7 7 8 8 9 9
6 6 7 7 7 7 6 6 5 5 5 5 5 4 4 4 4 4 4 4 4 4 4 4 4 5 5 5 5 5 5 5 5 5 6 6 7 7 7 8 9 9 10
7 6 6 7 7 7 6 6 6 5 5 5 5 5 5 4 4 4 4 4 4 5 5 5 5 5 6 6 6 6 6 6 6 7 7 6 7 7 8 7 8 9 9
8 7 7 7 7 7 6 6 6 5 5 5 5 5 5 5 4 4 4 4 5 5 5 5 5 6 6 6 6 6 7 7 7 7 7 6 6 6 7 7 8 8 8
8 7 7 7 7 7 7 6 6 5 5 5 6 6 6 6 5 4 4 5 6 6 5 5 5 6 6 6 7 7 6 6 6 6 6 6 6 6 7 7 7 7 8
Wind_Direction
325 313 308 315 311 305 301 298 289 279 274 271 266 264 262 258 246 240 240 244 244 245 241 237 231 223 220 217 221 223 223 221 217 217 220 219 219 220 219 218 219 225 226
319 313 306 316 314 303 305 301 293 278 272 268 263 261 258 253 246 241 242 246 251 251 246 241 234 227 224 227 229 228 225 224 224 226 225 226 225 228 228 228 228 231 234
313 312 308 307 304 303 308 299 290 275 265 264 258 256 256 255 249 245 244 247 252 251 246 241 236 230 227 230 232 234 229 227 228 231 232 230 230 232 233 236 236 235 238
313 309 305 302 301 301 306 299 285 271 266 263 256 254 256 259 255 249 245 247 251 251 245 237 234 234 231 230 233 234 232 230 232 234 236 235 233 233 237 239 239 240 242
316 311 309 309 308 307 305 303 293 277 269 264 258 256 259 262 260 251 250 252 254 254 249 240 236 238 239 237 236 233 232 232 235 236 237 238 236 235 238 239 240 243 245
317 313 311 309 312 311 302 294 295 290 275 267 265 262 259 258 251 248 246 251 252 249 253 248 244 241 241 237 237 236 235 237 238 237 238 237 236 237 238 238 241 246 247
333 327 322 316 315 316 308 296 295 289 280 273 268 264 262 259 251 247 246 250 254 251 250 250 248 246 243 240 242 241 239 243 244 241 239 238 239 238 238 238 243 247 248
341 334 330 321 317 315 319 314 301 295 289 277 271 270 263 257 250 248 247 250 254 255 253 250 252 252 250 248 247 247 246 245 244 247 244 243 243 239 238 241 246 249 250
347 339 329 322 319 320 319 317 311 302 293 281 275 271 265 261 257 251 247 249 255 257 256 253 254 253 254 254 251 252 250 246 245 245 244 245 246 245 242 243 246 248 250
353 347 338 331 328 329 326 324 320 315 302 284 277 274 273 268 261 253 253 256 256 258 260 256 255 254 254 257 255 251 248 244 242 242 245 248 249 248 248 250 251 251 253
359 355 348 345 339 334 335 333 326 326 319 303 288 276 274 272 264 252 253 253 254 254 254 253 252 257 257 257 256 249 245 245 243 248 249 250 248 250 251 253 253 254 254
357 353 349 347 343 337 338 338 334 333 329 328 312 288 280 281 274 257 252 251 254 252 252 251 251 253 255 255 256 253 248 247 249 250 249 252 250 250 251 252 253 254 257
355 352 349 348 347 348 350 342 338 337 339 345 337 312 305 299 290 271 259 256 257 256 257 257 258 259 253 251 251 252 250 250 249 250 252 253 251 250 253 254 253 256 257
355 353 351 353 359 359 3 348 343 341 342 347 355 343 326 308 298 290 274 271 262 260 261 259 264 256 252 252 251 249 251 251 252 254 252 255 252 252 253 255 255 256 258
356 355 349 351 352 351 351 351 354 350 351 348 347 341 329 310 305 311 288 271 266 266 263 261 267 260 254 257 253 249 254 257 250 253 253 252 250 249 252 255 258 259 259
356 357 353 352 349 347 345 342 337 330 333 331 326 323 324 314 305 303 301 282 276 275 270 269 264 257 256 262 261 254 257 258 253 253 255 253 253 253 253 256 259 258 259
354 355 352 358 357 351 349 350 341 329 323 320 317 316 312 314 315 303 302 284 277 278 280 278 272 261 259 260 264 267 268 268 263 256 255 254 253 255 257 259 258 258 259
351 351 351 355 354 352 350 351 342 330 322 318 313 310 308 305 305 297 292 290 282 282 278 271 268 264 255 257 267 266 271 271 268 262 257 252 251 256 261 264 263 258 257
350 351 351 356 353 355 350 347 339 336 328 317 310 305 301 300 298 294 290 294 292 287 286 273 266 262 258 259 260 267 269 267 270 264 261 254 251 256 262 266 267 261 261
341 348 352 357 350 348 346 339 341 338 337 334 321 310 304 297 291 291 291 293 292 285 287 280 269 264 265 265 261 264 267 267 264 263 267 263 260 263 264 264 261 259 261
335 341 340 346 346 342 339 338 341 342 340 334 325 314 303 294 295 300 296 295 291 287 290 286 283 270 267 265 268 269 266 265 267 268 268 268 267 265 264 263 261 260 261
333 335 338 341 345 345 337 336 337 343 341 338 335 323 313 306 306 306 295 295 295 291 289 284 279 271 269 266 267 271 272 271 274 273 268 269 266 263 265 266 265 262 262
336 332 334 338 340 344 342 335 333 338 341 343 346 346 334 319 319 311 300 298 296 293 290 286 280 269 263 265 270 278 281 278 275 280 278 274 268 267 267 267 267 265 265
337 335 335 337 339 345 345 344 341 337 340 342 340 342 335 325 314 308 300 299 298 296 291 284 280 272 265 265 272 276 279 277 277 276 281 278 278 277 277 276 270 268 265
335 334 336 337 335 339 339 339 339 337 338 339 337 335 331 324 317 303 294 295 295 295 294 285 279 276 271 273 276 278 279 280 278 272 272 276 279 281 280 280 276 272 267
331 328 327 329 330 331 331 334 337 332 329 330 333 333 331 327 315 301 294 292 292 292 291 285 279 279 275 278 281 280 279 278 280 281 278 277 280 279 278 277 276 274 274
Height
5881 5880 5880 5879 5879 5878 5878 5877 5877 5876 5876 5876 5876 5876 5876 5876 5876 5876 5876 5876 5876 5876 5875 5875 5874 5874 5874 5876 5877 5878 5879 5879 5879 5880 5881 5881 5882 5882 5882 5883 5883 5884 5883
5880 5879 5879 5878 5878 5877 5877 5876 5875 5875 5875 5875 5875 5875 5875 5875 5875 5875 5875 5875 5875 5874 5874 5874 5874 5874 5875 5875 5876 5877 5877 5878 5878 5879 5880 5880 5881 5881 5881 5882 5882 5882 5882
5879 5879 5878 5877 5877 5876 5876 5875 5874 5874 5874 5874 5874 5874 5874 5873 5874 5874 5874 5874 5873 5873 5873 5873 5873 5873 5874 5874 5875 5875 5876 5876 5877 5877 5878 5879 5879 5880 5880 5881 5881 5881 5881
5878 5877 5877 5876 5875 5875 5875 5874 5873 5873 5873 5872 5872 5872 5872 5872 5872 5872 5872 5872 5871 5871 5872 5872 5872 5872 5872 5873 5873 5874 5874 5874 5875 5876 5876 5877 5878 5878 5878 5879 5879 5880 5880
5877 5876 5876 5875 5874 5874 5873 5873 5872 5872 5871 5871 5871 5871 5871 5871 5871 5870 5870 5870 5870 5870 5870 5870 5870 5871 5871 5871 5871 5872 5872 5873 5873 5874 5874 5875 5876 5876 5877 5877 5878 5878 5879
5876 5875 5874 5874 5873 5873 5872 5872 5871 5871 5870 5870 5870 5870 5870 5869 5869 5869 5869 5869 5869 5868 5868 5868 5868 5869 5869 5870 5870 5870 5870 5871 5871 5872 5872 5873 5874 5874 5875 5875 5876 5876 5877
5875 5874 5873 5873 5872 5871 5871 5870 5869 5869 5869 5869 5868 5868 5868 5868 5868 5868 5868 5868 5867 5867 5867 5867 5867 5867 5867 5868 5868 5869 5869 5869 5869 5870 5870 5871 5871 5872 5873 5873 5874 5874 5875
5874 5873 5872 5872 5871 5870 5869 5869 5868 5868 5867 5867 5867 5867 5866 5866 5866 5866 5866 5866 5866 5866 5865 5865 5865 5866 5866 5866 5866 5867 5867 5867 5867 5868 5868 5869 5869 5870 5870 5871 5871 5872 5872
5874 5873 5871 5870 5870 5869 5868 5867 5867 5866 5866 5865 5865 5865 5865 5865 5864 5864 5864 5864 5864 5863 5863 5863 5863 5863 5863 5864 5864 5864 5864 5865 5865 5865 5866 5866 5867 5867 5868 5868 5869 5869 5870
5873 5872 5871 5870 5869 5868 5867 5866 5866 5865 5864 5864 5863 5863 5863 5863 5863 5863 5862 5862 5862 5861 5861 5861 5861 5861 5861 5861 5862 5862 5862 5862 5862 5863 5864 5864 5865 5865 5866 5866 5866 5867 5867
5873 5872 5870 5869 5868 5867 5866 5865 5864 5864 5863 5862 5862 5861 5861 5861 5861 5861 5860 5860 5860 5860 5859 5859 5859 5859 5859 5859 5859 5859 5860 5860 5860 5861 5861 5862 5862 5862 5863 5863 5863 5864 5864
5872 5871 5870 5869 5867 5866 5865 5864 5863 5862 5862 5861 5860 5860 5860 5859 5859 5859 5859 5858 5858 5858 5857 5857 5857 5857 5857 5857 5857 5857 5858 5858 5858 5859 5859 5859 5859 5860 5860 5860 5861 5861 5861
5872 5871 5869 5868 5867 5865 5864 5863 5862 5861 5861 5860 5860 5859 5859 5858 5857 5857 5857 5856 5856 5856 5856 5856 5855 5855 5855 5855 5855 5855 5856 5856 5856 5856 5857 5857 5857 5857 5857 5858 5858 5858 5859
5872 5870 5868 5867 5866 5865 5864 5863 5862 5861 5860 5860 5859 5858 5858 5857 5856 5856 5855 5855 5855 5854 5854 5854 5853 5853 5854 5853 5853 5853 5854 5854 5854 5854 5854 5854 5854 5854 5855 5855 5855 5856 5856
5871 5869 5868 5866 5865 5864 5863 5862 5861 5860 5859 5859 5858 5858 5857 5856 5855 5855 5854 5854 5853 5853 5853 5852 5852 5852 5852 5851 5851 5851 5851 5852 5852 5852 5852 5852 5852 5852 5852 5852 5853 5853 5853
5870 5868 5867 5865 5864 5863 5862 5861 5860 5860 5859 5858 5858 5857 5856 5855 5855 5854 5853 5853 5852 5852 5851 5851 5851 5850 5850 5850 5850 5850 5850 5850 5850 5850 5850 5850 5850 5850 5850 5850 5850 5850 5850
5869 5868 5866 5865 5863 5862 5861 5860 5859 5859 5858 5857 5857 5856 5855 5855 5854 5853 5852 5852 5851 5851 5850 5850 5849 5849 5849 5849 5849 5848 5848 5848 5848 5848 5848 5848 5848 5848 5848 5848 5848 5847 5847
5868 5867 5866 5864 5863 5861 5860 5859 5858 5857 5857 5856 5855 5855 5854 5853 5853 5852 5852 5851 5850 5850 5849 5849 5848 5848 5848 5848 5847 5847 5847 5847 5847 5846 5846 5846 5846 5846 5846 5845 5845 5845 5845
5868 5866 5865 5863 5862 5861 5860 5859 5857 5856 5856 5855 5854 5853 5853 5852 5851 5851 5851 5850 5849 5849 5848 5848 5847 5847 5847 5847 5846 5846 5846 5845 5845 5845 5844 5844 5844 5844 5844 5843 5843 5843 5843
5867 5865 5864 5863 5861 5860 5859 5858 5857 5856 5854 5854 5853 5852 5851 5851 5850 5850 5849 5849 5848 5848 5847 5847 5846 5846 5846 5845 5845 5845 5844 5844 5844 5843 5843 5842 5842 5842 5842 5842 5841 5841 5840
5866 5864 5863 5862 5861 5859 5858 5857 5856 5855 5853 5852 5851 5851 5850 5849 5849 5848 5848 5848 5847 5847 5846 5845 5845 5845 5844 5844 5844 5844 5843 5842 5842 5842 5841 5841 5840 5840 5840 5840 5839 5839 5838
5865 5863 5862 5861 5860 5858 5857 5856 5855 5854 5852 5851 5850 5849 5849 5848 5848 5847 5847 5846 5846 5845 5845 5844 5844 5844 5843 5843 5843 5842 5842 5842 5841 5840 5840 5839 5839 5838 5838 5838 5837 5837 5836
5864 5862 5861 5860 5859 5857 5856 5855 5854 5853 5852 5851 5850 5849 5848 5847 5846 5846 5845 5845 5844 5844 5844 5843 5843 5842 5842 5842 5842 5842 5841 5840 5840 5839 5838 5838 5837 5836 5836 5836 5835 5834 5834
5863 5861 5860 5859 5857 5856 5855 5854 5853 5852 5851 5850 5849 5848 5847 5846 5845 5845 5844 5844 5844 5843 5843 5842 5842 5841 5841 5840 5840 5840 5840 5839 5838 5838 5837 5836 5835 5834 5834 5833 5833 5832 5832
5862 5860 5859 5858 5856 5855 5854 5853 5852 5851 5850 5849 5848 5847 5846 5845 5844 5843 5843 5843 5842 5842 5841 5841 5840 5840 5839 5839 5838 5838 5837 5837 5836 5836 5835 5834 5834 5833 5832 5831 5830 5830 5829
5861 5859 5858 5857 5856 5854 5853 5852 5851 5850 5849 5848 5847 5846 5845 5844 5843 5842 5842 5841 5841 5840 5840 5839 5839 5838 5838 5837 5837 5836 5836 5835 5834 5834 5833 5832 5832 5831 5830 5829 5828 5828 5827